Weather in Velikovisochnoye

Russia / Nenets Autonomous Okrug     67°15′16″N   52°01′53″E
temp.,
°C
wind,
m/s
gust,
m/s
humid.,
%
clouds,
%
prec.,
mm/h
press.,
hPa
HPBL,
m
1 march, mon
mon100:00−11ssw689499 0.0 1005114
03:00−7ssw8139599 0.4 1002373
06:00−5ssw91495100 1.2 997569
09:00−4ssw101495100 2.8 993621
12:00−3ssw111596100 3.5 988849
15:00+1w91599100 6.7 986558
18:000w101596100 0.3 984651
21:00−3w61091100 0.3 985201
2 march, tue
tue200:00−3wsw6109694 0.1 984353
03:00−2wsw589697 0.3 985300
06:00−5wsw579698 0.6 985185
09:00−5wsw469598 0.7 986143
12:00−4w469494 0.1 986310
15:00−3nw469696 0.8 988341
18:00−7wnw4585100 0.1 98838
21:00−11wsw348977 0.1 98821
3 march, wed
wed300:00−12wsw349525 0.0 98821
03:00−14sse229753 0.0 98821
06:00−14e339890 0.1 98822
09:00−14ne569694 0.1 990142
12:00−15nne579599 0.1 991220
15:00−16n569598 0.1 993200
18:00−18nnw459698 0.1 99387
21:00−17nw459698 0.1 99386
4 march, thu
thu400:00−17nw449696 0.1 99370
03:00−14n339697 0.2 99357
06:00−16nne589699 0.2 993174
09:00−16ne699499 0.3 993305
12:00−16ne7993100 0.1 994374
15:00−17ne71093100 0.2 996373
18:00−20nne599898 0.0 996141
21:00−22nne689898 0.0 997125
5 march, fri
fri500:00−24nne699899 0.0 998130
03:00−26n5898100 0.0 99894
06:00−27n569997 0.0 99979
09:00−22n589697 0.1 1000282
12:00−21n5794100 0.1 1001404
15:00−20nnw5793100 0.1 1003476
18:00−23nw579795 0.0 1004110
21:00−24nnw479795 0.1 1005113